sat.trackr.live / text

‹ back to catalog

STARLINK-32631

NORAD 62235 · 2024-231T

PAYLOAD ACTIVE UNKNOWN

§ Identity

Operator
Country
US
Launch date
2024-12-05
Launch site
AFWTR
Launch vehicle
Mass (kg)
RCS (m²)

Purposes: comms

External: N2YO · Heavens-Above · Gunter

§ Orbital elements

Epoch: 2026-09-21T13:41:18.249504Z

Period
94.01 min
Inclination
53.1628°
Eccentricity
0.0001489
Mean motion
15.31737567 rev/d
Perigee alt
469.6 km
Apogee alt
471.6 km
Semi-major
6,848.8 km
B*
1.2984e-3
RAAN
15.2285°
Arg perigee
80.7166°
Mean anomaly
279.4004°
Rev number
10,195

§ Raw data

STARLINK-326311 62235U 24231T   26264.57035011  .00040192  00000+0  12984-2 0  99932 62235  53.1628  15.2285 0001489  80.7166 279.4004 15.31737567101955

JSON: /api/v1/satellites/62235 · /tle

For live sub-satellite position, see the globe view (requires WebGL).

§ Visibility from observer

Set your observer location to see the next 7 days of passes ≥ 10°. The values pass through the URL so the page stays shareable.

No JS? Fill the form by hand. The geolocation button needs JavaScript.